WetterOnline ( https://www.wetteronline.de )

Wetter aktuell Sondershausen

Aktuelles Wetter: Artern (166m)

6-stündlich | Neueste Meldungen
Ortszeit Temperatur Wetter
Do, 18.04. 20:00 8.4° C bewölkt
Do, 18.04. 14:00 10.7° C bewölkt
Do, 18.04. 8:00 4.5° C bedeckt
Do, 18.04. 2:00 4.2° C bewölkt
Mi, 17.04. 20:00 5.3° C bewölkt
Mi, 17.04. 14:00 6.8° C bedeckt
Mi, 17.04. 8:00 4.3° C Regen
Mi, 17.04. 2:00 6.3° C bedeckt
Ortszeit Temperatur Wetter
Do, 18.04. 22:00 6.1° C bedeckt
Do, 18.04. 21:50 6.1° C bedeckt
Do, 18.04. 21:40 5.8° C bedeckt
Do, 18.04. 21:30 5.7° C bewölkt
Do, 18.04. 21:20 5.7° C bewölkt
Do, 18.04. 21:10 5.6° C bedeckt
Do, 18.04. 21:00 5.7° C bewölkt
Do, 18.04. 20:30 7.2° C bewölkt
Do, 18.04. 20:00 8.4° C bewölkt
Do, 18.04. 19:30 9.5° C leichter Regen
Do, 18.04. 19:00 10.7° C wolkig
Ortszeit Relative Feuchte Sichtweite
Do, 18.04. 20:00 64% >70 km
Do, 18.04. 14:00 46% 55 km
Do, 18.04. 8:00 89% 26 km
Do, 18.04. 2:00 91% 45 km
Mi, 17.04. 20:00 89% 50 km
Mi, 17.04. 14:00 79% 65 km
Mi, 17.04. 8:00 95% 17 km
Mi, 17.04. 2:00 86% 50 km
Ortszeit Relative Feuchte Sichtweite
Do, 18.04. 22:00 82% 50 km
Do, 18.04. 21:50 82% -
Do, 18.04. 21:40 85% -
Do, 18.04. 21:30 83% 55 km
Do, 18.04. 21:20 83% -
Do, 18.04. 21:10 80% -
Do, 18.04. 21:00 82% 65 km
Do, 18.04. 20:30 73% >70 km
Do, 18.04. 20:00 64% >70 km
Do, 18.04. 19:30 51% 40 km
Do, 18.04. 19:00 49% >70 km
Ortszeit Niederschlagsmenge Niederschlagsart
Do, 18.04. 20:00 0.1 l/m2 in 12 Std. Regen
Do, 18.04. 14:00 0.1 l/m2 in 6 Std. Regen
Do, 18.04. 8:00 0.0 l/m2 in 12 Std. -
Do, 18.04. 2:00 0.0 l/m2 in 6 Std. -
Mi, 17.04. 20:00 6 l/m2 in 12 Std. Regen
Mi, 17.04. 14:00 3 l/m2 in 6 Std. Regen
Mi, 17.04. 8:00 0.4 l/m2 in 12 Std. Regen
Mi, 17.04. 2:00 0.3 l/m2 in 6 Std. Regen
Ortszeit Niederschlagsmenge Niederschlagsart
Do, 18.04. 22:00 0.0 l/m2 in 1 Std. -
Do, 18.04. 21:50 keine Meldung -
Do, 18.04. 21:40 keine Meldung -
Do, 18.04. 21:30 0.0 l/m2 in 30 Min -
Do, 18.04. 21:20 keine Meldung -
Do, 18.04. 21:10 keine Meldung -
Do, 18.04. 21:00 <0.05 l/m2 in 1 Std. Regen
Do, 18.04. 20:30 <0.05 l/m2 in 30 Min Schneeregen
Do, 18.04. 20:00 <0.05 l/m2 in 1 Std. Regen
Do, 18.04. 19:30 <0.05 l/m2 in 30 Min -
Do, 18.04. 19:00 <0.05 l/m2 in 1 Std. Regen
Ortszeit Stärke Spitze Richtung
km/h Bft. km/h Grad Sektor
Do, 18.04. 20:00 6 1 41 230° SW
Do, 18.04. 14:00 11 2 25 20° N
Do, 18.04. 8:00 11 2 14 10° N
Do, 18.04. 2:00 7 2 25 290° W
Mi, 17.04. 20:00 7 2 32 40° NO
Mi, 17.04. 14:00 18 3 36 30° NO
Mi, 17.04. 8:00 6 1 19 230° SW
Mi, 17.04. 2:00 9 2 31 340° N
Ortszeit Stärke Spitze Richtung
km/h Bft. km/h Grad Sektor
Do, 18.04. 22:00 6 1 13 200° S
Do, 18.04. 21:50 6 1 - 200° S
Do, 18.04. 21:40 6 1 - 190° S
Do, 18.04. 21:30 7 2 14 200° S
Do, 18.04. 21:20 7 2 - 200° S
Do, 18.04. 21:10 7 2 - 60° NO
Do, 18.04. 21:00 9 2 31 30° NO
Do, 18.04. 20:30 18 3 32 350° N
Do, 18.04. 20:00 6 1 41 230° SW
Do, 18.04. 19:30 20 4 41 290° W
Do, 18.04. 19:00 7 2 22 270° W
Ortszeit Untergrenze Bedeckung Gattung
total tief tief mittel hoch
Do, 18.04. 20:00 720 m 7/8 7/8 - - -
Do, 18.04. 14:00 1500 m 7/8 7/8 - - -
Do, 18.04. 8:00 960 m 8/8 8/8 - - -
Do, 18.04. 2:00 2400 m 7/8 7/8 - - -
Mi, 17.04. 20:00 1350 m 8/8 7/8 - - -
Mi, 17.04. 14:00 1350 m 8/8 8/8 - - -
Mi, 17.04. 8:00 90 m 8/8 8/8 - - -
Mi, 17.04. 2:00 450 m 8/8 8/8 - - -
Ortszeit Bedeckungsgrad in Achtel und Wolkenuntergrenze
Do, 18.04. 22:00 1(1290m) 7(1800m) 8(2100m)
Do, 18.04. 21:50 1(1290m) 7(1800m) 8(2100m)
Do, 18.04. 21:40 8
Do, 18.04. 21:30 4(1800m) 8(5400m) 8(6300m)
Do, 18.04. 21:20 4(1800m) 8(5400m) 8(6300m)
Do, 18.04. 21:10 8
Do, 18.04. 21:00 5(2100m) 7(5700m) 8(6300m)
Do, 18.04. 20:30 4(1410m) 8(6300m) 8(8700m)
Do, 18.04. 20:00 2(720m) 7(2100m) 7(6900m)
Do, 18.04. 19:30 1(960m) 6(1800m) 8(2400m)
Do, 18.04. 19:00 5(1800m) 6(7500m)
Ortszeit Luftdruck NN (hPa) Tendenz (hPa in 3 Std.)
Do, 18.04. 20:00 1017 0,0
Do, 18.04. 14:00 1017 + 0,2
Do, 18.04. 8:00 1015 + 1,9
Do, 18.04. 2:00 1012 + 0,9
Mi, 17.04. 20:00 1010 + 0,7
Mi, 17.04. 14:00 1009 + 0,4
Mi, 17.04. 8:00 1008 + 0,9
Mi, 17.04. 2:00 1007 + 1,6
Ortszeit Luftdruck NN (hPa) Tendenz (hPa in 3 Std.)
Do, 18.04. 22:00 1017 + 0,5
Do, 18.04. 21:50 1017 keine Meldung
Do, 18.04. 21:40 1017 keine Meldung
Do, 18.04. 21:30 1017 + 0,5
Do, 18.04. 21:20 1017 keine Meldung
Do, 18.04. 21:10 1017 keine Meldung
Do, 18.04. 21:00 1017 + 0,7
Do, 18.04. 20:30 1017 + 0,6
Do, 18.04. 20:00 1017 0,0
Do, 18.04. 19:30 1016 - 0,2
Do, 18.04. 19:00 1016 - 0,3
Ortszeit Schneehöhe (cm)
Do, 18.04. 20:00 0
Do, 18.04. 14:00 0
Do, 18.04. 8:00 -
Do, 18.04. 2:00 -
Mi, 17.04. 20:00 -
Mi, 17.04. 14:00 -
Mi, 17.04. 8:00 -
Mi, 17.04. 2:00 -
Ortszeit Schneehöhe (cm)
Do, 18.04. 22:00 0
Do, 18.04. 21:50 0
Do, 18.04. 21:40 -
Do, 18.04. 21:30 0
Do, 18.04. 21:20 0
Do, 18.04. 21:10 -
Do, 18.04. 21:00 0
Do, 18.04. 20:30 0
Do, 18.04. 20:00 0
Do, 18.04. 19:30 0
Do, 18.04. 19:00 0
Link zu dieser Seite / Seite empfehlen

Das Wetter in ...